Home > Weather > Memmingen > Past weeks

Flag for Germany Past Weather in Memmingen, Bavaria, Germany — Yesterday and Last 2 Weeks

Now
73 °F

Scattered clouds.


Feels Like: 76 °F
Forecast: 56 / 72 °F
Wind: 3 mph from Southwest

Location: Laupheim Airport

Current Time: Jul 1, 2016 at 10:53:34 PM

Latest Report: Jul 1, 2016 at 9:20 PM


Visibility: N/A

Pressure: 30.04 "Hg (28.02 "Hg at 602m altitude)

Humidity: 61%

Dew Point: 59 °F

Location of MemmingenLocation

Past Weather in Memmingen — Graph

°F

Memmingen Temperature Yesterday

Maximum temperature yesterday: 73 °F (at 3:20 PM)
Minimum temperature yesterday: 61 °F (at 4:20 AM)
Average temperature yesterday: 67 °F

High & Low Weather Summary for the Past Weeks

 TemperatureHumidityPressure
High90 °F (Jun 23, 4:20 PM)100% (Jun 20, 2:20 AM)30.30 "Hg (Jun 20, 2:20 AM)
Low46 °F (Jun 20, 5:20 AM)31% (Jun 23, 4:20 PM)29.65 "Hg (Jun 16, 10:20 PM)
Average65 °F72%30.10 "Hg
* Reported Jun 16 9:20 PM — Jul 1 9:20 PM, Memmingen, Weather by CustomWeather, © 2016

Note: Actual official high and low records may vary slightly from our data, if they occured in-between our weather recording intervals... More about our weather records

Advertising

Memmingen Weather History for the Previous 24 Hours

Scroll right to see more
 ConditionsComfort  
Time TempWeatherWind HumidityBarometerVisibility
9:20 PM
Fri, Jul 1
73 °FScattered clouds.3 mph61%30.04 "HgN/A
8:20 PM77 °FScattered clouds.7 mph47%30.01 "HgN/A
7:20 PM79 °FPassing clouds.7 mph45%30.01 "HgN/A
6:20 PM79 °FPassing clouds.12 mph45%30.04 "HgN/A
5:20 PM79 °FPassing clouds.10 mph45%30.04 "HgN/A
4:20 PM79 °FPassing clouds.13 mph45%30.04 "HgN/A
3:20 PM79 °FPassing clouds.10 mph48%30.07 "HgN/A
2:20 PM75 °FScattered clouds.7 mph57%30.07 "HgN/A
1:20 PM73 °FScattered clouds.5 mph61%30.09 "HgN/A
12:20 PM72 °FScattered clouds.6 mph61%30.09 "HgN/A
12:00 PM72 °FScattered clouds.7 mph57%30.09 "HgN/A
11:20 AM72 °FScattered clouds.7 mph61%30.09 "HgN/A
10:20 AM68 °FScattered clouds.6 mph78%30.12 "HgN/A
9:20 AM66 °FFog.5 mph83%30.12 "HgN/A
7:20 AM61 °FFog.5 mph94%30.09 "HgN/A
6:20 AM61 °FFog.2 mph88%30.09 "HgN/A
5:20 AM59 °FPassing clouds.2 mph94%30.09 "HgN/A
4:20 AM61 °FPassing clouds.5 mph94%30.09 "HgN/A
3:20 AM61 °FPassing clouds.6 mph94%30.09 "HgN/A
2:20 AM63 °FPassing clouds.6 mph88%30.09 "HgN/A
1:20 AM63 °FPassing clouds.7 mph88%30.07 "HgN/A
12:20 AM64 °FPassing clouds.5 mph88%30.09 "HgN/A
11:20 PM
Thu, Jun 30
66 °FThundershowers. Passing clouds.3 mph78%30.07 "HgN/A
10:20 PM66 °FScattered clouds.2 mph83%30.07 "HgN/A
Weather by CustomWeather, © 2016

See weather overviewHow to use our weather pages